R/V Knorr Calliope CSV data file - KN193_II  (Time stamps are GMT)
Date, Time_GMT, Depth12, Depth35, Air_Temp, WXT5_Ta, WXT5_Pa, dec_lat, dec_lon, EDO_knt, GPS_COG, GPS_SOG, Gyro, IMET_BPR, IMET_SWR, WXT5_Ri, WXT5_Rc, HRH, WXT5_Ua, WXT5_Dm, WXT5_Sm, SBE45C, SBE45S, SBE45T, Salinity, SSCND, Fluorometer, SSTMP, SSV, Wnd_Dir, TWD_5, Wnd_Spd, TWS_5, HdChkSum=52
2008/04/13, 00:00:43, , , -2.50, -2.00, 1013.6, 69.6483470, 18.9625580, , 153.40, 0.01, 192.70, 1014.50, -0.70, 0.0, 28.58, 63.27, 68.2, 222, 3.2, 46.79000, 33.39780, 20.8525, 33.3978, 46.7900, 83.90, 3.4217, 1462.12, 58.10, 52.3, 1.66, 3.2, 52
2008/04/13, 00:01:43, , , -2.44, -2.00, 1013.6, 69.6483470, 18.9625600, , 63.40, 0.01, 192.70, 1014.48, -0.80, 0.0, 28.58, 64.47, 69.3, 229, 2.6, 46.78890, 33.39750, 20.8517, 33.3975, 46.7889, 83.20, 3.4218, 1462.12, 49.70, 59.3, 2.18, 2.6, 52
2008/04/13, 00:02:43, , , -2.53, -1.90, 1013.6, 69.6483470, 18.9625580, , 270.00, 0.00, 192.70, 1014.49, -0.70, 0.0, 28.58, 62.98, 68.9, 223, 2.7, 46.78820, 33.39750, 20.8510, 33.3975, 46.7882, 83.20, 3.4231, 1462.13, 62.80, 53.3, 2.17, 2.7, 52
2008/04/13, 00:03:44, , , -2.47, -1.90, 1013.6, 69.6483480, 18.9625600, , 90.00, 0.01, 192.60, 1014.49, -0.40, 0.0, 28.58, 63.06, 68.7, 237, 3.1, 46.78720, 33.39760, 20.8499, 33.3976, 46.7872, 83.60, 3.4246, 1462.13, 78.50, 67.2, 2.18, 3.1, 52
2008/04/13, 00:04:43, , , -2.42, -1.90, 1013.6, 69.6483480, 18.9625580, , 180.00, 0.02, 192.70, 1014.50, -0.30, 0.0, 28.58, 62.70, 68.1, 222, 2.8, 46.78670, 33.39780, 20.8492, 33.3978, 46.7867, 83.90, 3.4255, 1462.14, 74.20, 52.3, 2.26, 2.8, 52
2008/04/13, 00:05:43, , , -2.36, -1.90, 1013.7, 69.6483480, 18.9625580, , 0.00, 0.02, 192.70, 1014.53, -0.50, 0.0, 28.58, 62.85, 68.4, 230, 2.3, 46.78580, 33.39710, 20.8491, 33.3971, 46.7858, 83.00, 3.4261, 1462.14, 84.40, 60.3, 1.75, 2.3, 52
2008/04/13, 00:06:44, , , -2.36, -1.80, 1013.7, 69.6483480, 18.9625580, , 315.00, 0.01, 192.70, 1014.54, -0.20, 0.0, 28.58, 62.57, 68.0, 235, 2.4, 46.78540, 33.39740, 20.8482, 33.3974, 46.7854, 83.60, 3.4261, 1462.14, 93.00, 65.3, 1.54, 2.4, 52
2008/04/13, 00:07:43, , , -2.31, -1.80, 1013.7, 69.6483480, 18.9625580, , 146.30, 0.01, 192.70, 1014.46, -0.20, 0.0, 28.58, 63.38, 68.5, 241, 1.8, 46.78490, 33.39700, 20.8483, 33.3970, 46.7849, 83.90, 3.4260, 1462.14, 79.70, 71.1, 1.78, 1.8, 52
2008/04/13, 00:08:43, , , -2.33, -1.80, 1013.7, 69.6483480, 18.9625580, , 90.00, 0.00, 192.70, 1014.55, -0.40, 0.0, 28.58, 64.03, 69.0, 248, 1.8, 46.78440, 33.39700, 20.8478, 33.3970, 46.7844, 83.60, 3.4256, 1462.14, 65.60, 78.3, 1.34, 1.8, 52
2008/04/13, 00:09:43, , , -2.33, -1.80, 1013.7, 69.6483470, 18.9625580, , 198.40, 0.01, 192.70, 1014.57, -0.70, 0.0, 28.58, 64.50, 69.3, 226, 1.7, 46.78370, 33.39620, 20.8481, 33.3962, 46.7837, 83.60, 3.4256, 1462.14, 65.30, 56.3, 1.38, 1.7, 52
2008/04/13, 00:10:43, , , -2.28, -1.70, 1013.7, 69.6483480, 18.9625600, , 135.00, 0.00, 192.70, 1014.53, -0.60, 0.0, 28.58, 65.20, 69.8, 279, 2.4, 46.78330, 33.39640, 20.8474, 33.3964, 46.7833, 83.60, 3.4258, 1462.14, 70.70, 109.3, 1.13, 2.4, 52
2008/04/13, 00:11:44, , , -2.22, -1.70, 1013.7, 69.6483470, 18.9625580, , 45.00, 0.01, 192.70, 1014.49, -0.70, 0.0, 28.58, 65.85, 70.4, 223, 1.5, 46.78280, 33.39640, 20.8470, 33.3964, 46.7828, 83.90, 3.4268, 1462.14, 60.90, 53.4, 0.95, 1.5, 52
2008/04/13, 00:12:44, , , -2.17, -1.60, 1013.7, 69.6483480, 18.9625580, , 90.00, 0.01, 192.70, 1014.47, -0.60, 0.0, 28.58, 65.80, 70.7, 251, 2.0, 46.78240, 33.39600, 20.8470, 33.3960, 46.7824, 83.90, 3.4282, 1462.15, 47.60, 81.3, 1.01, 2.0, 52
2008/04/13, 00:13:44, , , -2.25, -1.60, 1013.7, 69.6483480, 18.9625580, , 256.00, 0.01, 192.70, 1014.51, -0.60, 0.0, 28.58, 66.06, 70.9, 271, 2.0, 46.78190, 33.39620, 20.8463, 33.3962, 46.7819, 83.60, 3.4286, 1462.15, 70.90, 101.2, 1.07, 2.0, 52
2008/04/13, 00:14:43, , , -2.17, -1.60, 1013.7, 69.6483470, 18.9625580, , 161.60, 0.01, 192.70, 1014.53, -0.60, 0.0, 28.58, 65.95, 70.7, 230, 1.7, 46.78140, 33.39600, 20.8460, 33.3960, 46.7814, 83.60, 3.4284, 1462.15, 88.20, 60.3, 0.93, 1.7, 52
2008/04/13, 00:15:43, , , -2.22, -1.60, 1013.7, 69.6483470, 18.9625580, , 0.00, 0.00, 192.70, 1014.54, -0.70, 0.0, 28.58, 66.03, 70.8, 255, 1.9, 46.78090, 33.39570, 20.8460, 33.3957, 46.7809, 83.20, 3.4270, 1462.14, 74.80, 85.1, 1.05, 1.9, 52
2008/04/13, 00:16:44, , , -2.17, -1.60, 1013.7, 69.6483470, 18.9625580, , 0.00, 0.00, 192.70, 1014.57, -0.80, 0.0, 28.58, 66.52, 70.9, 248, 2.1, 46.78050, 33.39610, 20.8450, 33.3961, 46.7805, 83.60, 3.4251, 1462.13, 61.90, 78.4, 0.90, 2.1, 52
2008/04/13, 00:17:43, , , -2.17, -1.60, 1013.7, 69.6483470, 18.9625580, , 135.00, 0.00, 192.70, 1014.56, -0.80, 0.0, 28.58, 66.55, 71.1, 241, 1.7, 46.78010, 33.39570, 20.8450, 33.3957, 46.7801, 83.60, 3.4217, 1462.12, 71.80, 71.4, 1.15, 1.7, 52
2008/04/13, 00:18:43, , , -2.08, -1.60, 1013.7, 69.6483470, 18.9625580, , 116.60, 0.02, 192.70, 1014.55, -0.60, 0.0, 28.58, 66.68, 71.5, 293, 2.8, 46.77910, 33.39560, 20.8441, 33.3956, 46.7791, 83.20, 3.4153, 1462.09, 86.70, 123.2, 0.81, 2.8, 52
2008/04/13, 00:19:43, , , -2.08, -1.60, 1013.7, 69.6483470, 18.9625580, , 0.00, 0.01, 192.70, 1014.57, -0.60, 0.0, 28.58, 66.24, 71.2, 239, 2.1, 46.77860, 33.39600, 20.8431, 33.3960, 46.7786, 83.90, 3.4064, 1462.05, 106.90, 69.3, 0.83, 2.1, 52
2008/04/13, 00:20:43, , , -2.14, -1.60, 1013.7, 69.6483470, 18.9625580, , 206.60, 0.02, 192.70, 1014.58, -0.50, 0.0, 28.58, 66.29, 71.3, 262, 2.3, 46.77770, 33.39610, 20.8421, 33.3961, 46.7777, 83.90, 3.3913, 1461.99, 82.30, 92.3, 1.17, 2.3, 52
2008/04/13, 00:21:43, , , -2.11, -1.60, 1013.7, 69.6483470, 18.9625580, , 0.00, 0.01, 192.70, 1014.53, -0.50, 0.0, 28.58, 66.78, 71.6, 237, 1.8, 46.77720, 33.39570, 20.8421, 33.3957, 46.7772, 83.60, 3.3803, 1461.94, 76.60, 67.3, 1.05, 1.8, 52
2008/04/13, 00:22:44, , , -2.17, -1.60, 1013.7, 69.6483470, 18.9625580, , 153.40, 0.00, 192.70, 1014.55, -0.50, 0.0, 28.58, 66.70, 71.6, 240, 2.1, 46.77630, 33.39560, 20.8413, 33.3956, 46.7763, 83.60, 3.3680, 1461.89, 53.00, 70.4, 1.15, 2.1, 52
2008/04/13, 00:23:43, , , -2.19, -1.50, 1013.7, 69.6483470, 18.9625580, , 90.00, 0.01, 192.70, 1014.59, -0.40, 0.0, 28.58, 66.78, 71.8, 233, 1.9, 46.77580, 33.39570, 20.8407, 33.3957, 46.7758, 83.60, 3.3604, 1461.86, 70.50, 63.3, 1.15, 1.9, 52
2008/04/13, 00:24:44, , , -2.11, -1.60, 1013.7, 69.6483480, 18.9625580, , 90.00, 0.01, 192.70, 1014.59, -0.50, 0.0, 28.58, 66.78, 71.7, 231, 1.6, 46.77510, 33.39580, 20.8398, 33.3958, 46.7751, 83.00, 3.3540, 1461.83, 71.20, 61.2, 1.05, 1.6, 52
2008/04/13, 00:25:43, , , -2.11, -1.60, 1013.7, 69.6483470, 18.9625580, , 0.00, 0.01, 192.70, 1014.57, -0.30, 0.0, 28.58, 67.01, 71.9, 211, 3.7, 46.77470, 33.39580, 20.8394, 33.3958, 46.7747, 83.60, 3.3491, 1461.81, 70.10, 41.3, 1.06, 3.7, 52
2008/04/13, 00:26:43, , , -2.11, -1.50, 1013.7, 69.6483470, 18.9625580, , 180.00, 0.02, 192.70, 1014.57, -0.40, 0.0, 28.58, 67.48, 72.3, 217, 2.5, 46.77390, 33.39580, 20.8387, 33.3958, 46.7739, 83.20, 3.3468, 1461.80, 54.00, 47.1, 0.68, 2.5, 52
2008/04/13, 00:27:43, , , -1.97, -1.50, 1013.7, 69.6483480, 18.9625580, , 90.00, 0.01, 192.70, 1014.55, -0.20, 0.0, 28.58, 67.25, 72.4, 236, 1.5, 46.77370, 33.39600, 20.8382, 33.3960, 46.7737, 83.00, 3.3459, 1461.80, 55.30, 66.2, 0.39, 1.5, 52
2008/04/13, 00:28:43, , , -1.94, -1.40, 1013.7, 69.6483470, 18.9625600, , 225.00, 0.01, 192.70, 1014.55, -0.40, 0.0, 28.58, 67.53, 72.7, 233, 2.2, 46.77320, 33.39510, 20.8387, 33.3951, 46.7732, 83.20, 3.3447, 1461.79, 50.10, 63.4, 0.46, 2.2, 52
2008/04/13, 00:29:43, , , -2.00, -1.40, 1013.7, 69.6483470, 18.9625600, , 270.00, 0.01, 192.70, 1014.58, -0.30, 0.0, 28.58, 67.81, 72.8, 215, 2.8, 46.77280, 33.39520, 20.8383, 33.3952, 46.7728, 83.20, 3.3444, 1461.79, 37.40, 45.3, 0.55, 2.8, 52
2008/04/13, 00:30:43, , , -2.00, -1.30, 1013.7, 69.6483470, 18.9625600, , 270.00, 0.00, 192.70, 1014.57, -0.60, 0.0, 28.58, 67.74, 72.6, 208, 2.3, 46.77230, 33.39490, 20.8382, 33.3949, 46.7723, 83.20, 3.3438, 1461.79, 39.20, 38.4, 0.24, 2.3, 52
2008/04/13, 00:31:43, , , -1.83, -1.30, 1013.7, 69.6483470, 18.9625600, , 180.00, 0.00, 192.70, 1014.56, -0.50, 0.0, 28.58, 67.94, 72.9, 218, 2.2, 46.77190, 33.39510, 20.8374, 33.3951, 46.7719, 82.40, 3.3438, 1461.79, 38.90, 48.4, 0.30, 2.2, 52
2008/04/13, 00:32:43, , , -1.94, -1.30, 1013.7, 69.6483480, 18.9625600, , 90.00, 0.01, 192.70, 1014.60, -0.80, 0.0, 28.58, 67.58, 72.9, 218, 3.4, 46.77120, 33.39470, 20.8373, 33.3947, 46.7712, 83.60, 3.3419, 1461.78, 38.00, 48.3, 0.80, 3.4, 52
2008/04/13, 00:33:43, , , -1.94, -1.30, 1013.7, 69.6483480, 18.9625600, , 270.00, 0.02, 192.70, 1014.59, -0.70, 0.0, 28.58, 67.74, 72.7, 246, 2.1, 46.77090, 33.39470, 20.8369, 33.3947, 46.7709, 83.20, 3.3385, 1461.77, 38.50, 76.4, 0.69, 2.1, 52
2008/04/13, 00:34:44, , , -1.89, -1.30, 1013.7, 69.6483480, 18.9625600, , 270.00, 0.00, 192.70, 1014.57, -0.60, 0.0, 28.58, 67.74, 72.8, 210, 3.7, 46.77020, 33.39480, 20.8362, 33.3948, 46.7702, 83.20, 3.3335, 1461.74, 35.60, 40.4, 0.65, 3.7, 52
2008/04/13, 00:35:43, , , -1.94, -1.30, 1013.7, 69.6483470, 18.9625580, , 90.00, 0.01, 192.70, 1014.58, -0.50, 0.0, 28.58, 67.48, 72.6, 221, 2.4, 46.76980, 33.39450, 20.8361, 33.3945, 46.7698, 83.60, 3.3289, 1461.72, 36.00, 51.4, 0.93, 2.4, 52
2008/04/13, 00:36:43, , , -1.97, -1.40, 1013.7, 69.6483480, 18.9625600, , 270.00, 0.01, 192.70, 1014.59, -0.70, 0.0, 28.58, 67.97, 72.8, 232, 2.2, 46.76930, 33.39490, 20.8351, 33.3949, 46.7693, 83.20, 3.3228, 1461.70, 34.40, 62.5, 0.71, 2.2, 52
2008/04/13, 00:37:43, , , -1.94, -1.40, 1013.7, 69.6483470, 18.9625600, , 90.00, 0.00, 192.70, 1014.55, -0.50, 0.0, 28.58, 68.43, 73.0, 235, 3.3, 46.76860, 33.39500, 20.8343, 33.3950, 46.7686, 83.20, 3.3153, 1461.67, 37.00, 65.3, 0.78, 3.3, 52
2008/04/13, 00:38:44, , , -1.92, -1.30, 1013.7, 69.6483470, 18.9625600, , 90.00, 0.01, 192.70, 1014.57, -0.50, 0.0, 28.58, 68.61, 73.3, 228, 2.1, 46.76790, 33.39510, 20.8334, 33.3951, 46.7679, 83.20, 3.3058, 1461.63, 50.50, 58.3, 0.73, 2.1, 52
2008/04/13, 00:39:43, , , -1.86, -1.30, 1013.7, 69.6483480, 18.9625600, , 90.00, 0.01, 192.70, 1014.58, -0.40, 0.0, 28.58, 68.87, 73.3, 221, 3.5, 46.76750, 33.39480, 20.8333, 33.3948, 46.7675, 83.60, 3.2998, 1461.60, 53.80, 51.3, 0.73, 3.5, 52
2008/04/13, 00:40:43, , , -1.97, -1.30, 1013.7, 69.6483480, 18.9625600, , 270.00, 0.01, 192.70, 1014.61, -0.70, 0.0, 28.58, 68.69, 73.5, 238, 1.8, 46.76680, 33.39510, 20.8323, 33.3951, 46.7668, 82.40, 3.2918, 1461.57, 59.60, 68.5, 0.77, 1.8, 52
2008/04/13, 00:41:43, , , -2.00, -1.30, 1013.7, 69.6483480, 18.9625600, , 303.70, 0.01, 192.60, 1014.59, -0.70, 0.0, 28.58, 68.72, 73.3, 237, 1.7, 46.76580, 33.39520, 20.8311, 33.3952, 46.7658, 83.20, 3.2824, 1461.53, 73.10, 67.3, 0.82, 1.7, 52
2008/04/13, 00:42:43, , , -2.08, -1.30, 1013.7, 69.6483480, 18.9625600, , 45.00, 0.01, 192.60, 1014.60, -0.60, 0.0, 28.58, 69.18, 73.5, 222, 2.4, 46.76510, 33.39500, 20.8306, 33.3950, 46.7651, 83.20, 3.2765, 1461.50, 62.90, 52.2, 1.07, 2.4, 52
2008/04/13, 00:43:43, , , -1.86, -1.30, 1013.7, 69.6483480, 18.9625600, , 26.60, 0.00, 192.60, 1014.61, -0.40, 0.0, 28.58, 69.10, 73.7, 220, 2.8, 46.76420, 33.39500, 20.8297, 33.3950, 46.7642, 83.60, 3.2704, 1461.48, 52.30, 50.2, 0.99, 2.8, 52
2008/04/13, 00:44:44, , , -1.89, -1.30, 1013.7, 69.6483480, 18.9625600, , 180.00, 0.00, 192.60, 1014.61, -0.90, 0.0, 28.58, 69.02, 73.6, 222, 2.7, 46.76370, 33.39530, 20.8289, 33.3953, 46.7637, 83.20, 3.2677, 1461.46, 56.60, 52.2, 0.82, 2.7, 52
2008/04/13, 00:45:43, , , -1.97, -1.30, 1013.8, 69.6483480, 18.9625600, , 296.60, 0.00, 192.60, 1014.62, -0.50, 0.0, 28.58, 68.72, 73.6, 211, 2.7, 46.76350, 33.39530, 20.8287, 33.3953, 46.7635, 83.00, 3.2664, 1461.46, 50.00, 41.2, 1.40, 2.7, 52
2008/04/13, 00:46:43, , , -1.92, -1.30, 1013.8, 69.6483480, 18.9625600, , 90.00, 0.01, 192.60, 1014.65, -0.50, 0.0, 28.58, 69.18, 73.6, 214, 3.3, 46.76280, 33.39500, 20.8284, 33.3950, 46.7628, 83.60, 3.2657, 1461.46, 48.10, 44.3, 0.75, 3.3, 52
2008/04/13, 00:47:43, , , -1.97, -1.30, 1013.8, 69.6483480, 18.9625600, , 63.40, 0.00, 192.60, 1014.62, -0.70, 0.0, 28.58, 68.95, 73.5, 264, 2.1, 46.76230, 33.39450, 20.8285, 33.3945, 46.7623, 83.60, 3.2667, 1461.46, 43.20, 94.3, 0.66, 2.1, 52
2008/04/13, 00:48:43, , , -1.94, -1.40, 1013.8, 69.6483480, 18.9625600, , 90.00, 0.00, 192.60, 1014.65, -0.90, 0.0, 28.58, 69.41, 73.6, 240, 2.7, 46.76210, 33.39480, 20.8278, 33.3948, 46.7621, 83.00, 3.2678, 1461.46, 43.30, 70.2, 0.37, 2.7, 52
2008/04/13, 00:49:43, , , -1.97, -1.40, 1013.8, 69.6483480, 18.9625600, , 0.00, 0.01, 192.60, 1014.63, -0.90, 0.0, 28.58, 69.15, 73.7, 227, 3.2, 46.76160, 33.39420, 20.8282, 33.3942, 46.7616, 83.20, 3.2693, 1461.47, 43.30, 57.1, 0.59, 3.2, 52
2008/04/13, 00:50:43, , , -2.00, -1.40, 1013.8, 69.6483480, 18.9625600, , 315.00, 0.01, 192.60, 1014.64, -1.10, 0.0, 28.58, 69.08, 73.7, 204, 2.7, 46.76120, 33.39400, 20.8280, 33.3940, 46.7612, 83.20, 3.2700, 1461.47, 43.90, 34.2, 0.32, 2.7, 52
2008/04/13, 00:51:43, , , -1.94, -1.40, 1013.8, 69.6483480, 18.9625600, , 0.00, 0.00, 192.60, 1014.66, -1.10, 0.0, 28.58, 69.10, 73.5, 209, 2.5, 46.76090, 33.39370, 20.8281, 33.3937, 46.7609, 83.20, 3.2710, 1461.48, 18.90, 39.3, 0.41, 2.5, 52
2008/04/13, 00:52:43, , , -2.00, -1.40, 1013.8, 69.6483480, 18.9625600, , 180.00, 0.01, 192.60, 1014.66, -1.10, 0.0, 28.58, 69.10, 73.6, 213, 2.8, 46.76070, 33.39390, 20.8276, 33.3939, 46.7607, 82.70, 3.2724, 1461.48, 20.50, 43.0, 0.29, 2.8, 52
2008/04/13, 00:53:43, , , -2.00, -1.50, 1013.8, 69.6483480, 18.9625580, , 0.00, 0.02, 192.60, 1014.69, -1.40, 0.0, 28.58, 68.89, 73.8, 220, 1.8, 46.76030, 33.39370, 20.8274, 33.3937, 46.7603, 83.00, 3.2730, 1461.48, 32.50, 50.2, 0.42, 1.8, 52
2008/04/13, 00:54:43, , , -2.19, -1.50, 1013.8, 69.6483480, 18.9625580, , 315.00, 0.01, 192.60, 1014.66, -1.40, 0.0, 28.58, 68.87, 73.6, 203, 2.6, 46.76000, 33.39410, 20.8266, 33.3941, 46.7600, 83.20, 3.2742, 1461.49, 50.50, 33.1, 0.59, 2.6, 52
2008/04/13, 00:55:43, , , -2.11, -1.50, 1013.8, 69.6483480, 18.9625580, , 315.00, 0.01, 192.60, 1014.64, -0.90, 0.0, 28.58, 68.74, 73.7, 220, 2.4, 46.75930, 33.39380, 20.8262, 33.3938, 46.7593, 82.70, 3.2758, 1461.50, 51.50, 50.3, 0.56, 2.4, 52
2008/04/13, 00:56:43, , , -1.92, -1.40, 1013.8, 69.6483480, 18.9625600, , 315.00, 0.00, 192.60, 1014.61, -0.80, 0.0, 28.58, 68.82, 73.9, 225, 2.0, 46.75880, 33.39410, 20.8254, 33.3941, 46.7588, 83.00, 3.2784, 1461.51, 51.30, 55.2, 0.51, 2.0, 52
2008/04/13, 00:57:44, , , -2.08, -1.40, 1013.8, 69.6483480, 18.9625600, , 71.60, 0.02, 192.60, 1014.63, -0.80, 0.0, 28.58, 69.00, 73.9, 211, 3.5, 46.75810, 33.39420, 20.8246, 33.3942, 46.7581, 83.00, 3.2805, 1461.52, 50.10, 41.1, 0.73, 3.5, 52
2008/04/13, 00:58:43, , , -2.00, -1.40, 1013.7, 69.6483480, 18.9625600, , 71.60, 0.03, 192.60, 1014.63, -0.60, 0.0, 28.58, 69.13, 74.1, 222, 2.5, 46.75750, 33.39420, 20.8238, 33.3942, 46.7575, 83.00, 3.2824, 1461.53, 50.20, 52.2, 0.61, 2.5, 52
2008/04/13, 00:59:43, , , -1.97, -1.40, 1013.7, 69.6483480, 18.9625600, , 90.00, 0.02, 192.60, 1014.64, -0.70, 0.0, 28.58, 69.41, 74.3, 216, 2.9, 46.75700, 33.39440, 20.8231, 33.3944, 46.7570, 83.20, 3.2841, 1461.53, 47.80, 46.1, 0.93, 2.9, 52
2008/04/13, 01:00:43, , , -2.06, -1.40, 1013.7, 69.6483480, 18.9625600, , 216.90, 0.02, 192.60, 1014.61, -0.50, 0.0, 28.58, 69.23, 74.1, 218, 2.4, 46.75610, 33.39460, 20.8219, 33.3946, 46.7561, 83.20, 3.2853, 1461.54, 41.00, 48.1, 1.13, 2.4, 52
2008/04/13, 01:01:43, , , -1.94, -1.40, 1013.7, 69.6483480, 18.9625600, , 251.60, 0.01, 192.60, 1014.61, -0.40, 0.0, 28.58, 69.49, 74.0, 240, 2.1, 46.75510, 33.39490, 20.8206, 33.3949, 46.7551, 83.60, 3.2856, 1461.54, 48.60, 70.3, 0.79, 2.1, 52
2008/04/13, 01:02:43, , , -2.00, -1.40, 1013.7, 69.6483480, 18.9625600, , 180.00, 0.00, 192.60, 1014.62, -0.40, 0.0, 28.58, 69.61, 74.2, 227, 1.7, 46.75460, 33.39530, 20.8196, 33.3953, 46.7546, 83.20, 3.2863, 1461.54, 42.30, 57.2, 0.40, 1.7, 52
2008/04/13, 01:03:44, , , -2.03, -1.40, 1013.7, 69.6483480, 18.9625600, , 90.00, 0.02, 192.60, 1014.60, -0.50, 0.0, 28.58, 69.28, 74.2, 222, 1.7, 46.75370, 33.39550, 20.8184, 33.3955, 46.7537, 83.20, 3.2880, 1461.55, 58.00, 52.2, 1.02, 1.7, 52
2008/04/13, 01:04:43, , , -2.14, -1.40, 1013.7, 69.6483480, 18.9625600, , 270.00, 0.01, 192.60, 1014.57, -0.50, 0.0, 28.58, 68.92, 73.9, 232, 2.1, 46.75330, 33.39560, 20.8178, 33.3956, 46.7533, 83.20, 3.2907, 1461.56, 49.40, 62.1, 1.57, 2.1, 52
2008/04/13, 01:05:43, , , -2.14, -1.40, 1013.7, 69.6483480, 18.9625600, , 90.00, 0.01, 192.60, 1014.59, -0.50, 0.0, 28.58, 68.97, 73.9, 215, 2.5, 46.75230, 33.39540, 20.8171, 33.3954, 46.7523, 82.40, 3.2956, 1461.58, 54.10, 45.2, 1.27, 2.5, 52
2008/04/13, 01:06:43, , , -2.06, -1.40, 1013.7, 69.6483480, 18.9625580, , 198.40, 0.01, 192.60, 1014.56, -0.40, 0.0, 28.58, 69.61, 74.0, 221, 2.7, 46.75160, 33.39540, 20.8164, 33.3954, 46.7516, 82.70, 3.2997, 1461.60, 54.70, 51.3, 1.17, 2.7, 52
2008/04/13, 01:07:43, , , -2.08, -1.40, 1013.7, 69.6483480, 18.9625600, , 90.00, 0.00, 192.60, 1014.55, -0.20, 0.0, 28.58, 69.25, 74.1, 219, 3.2, 46.75100, 33.39590, 20.8151, 33.3959, 46.7510, 82.70, 3.3038, 1461.62, 40.30, 49.1, 1.37, 3.2, 52
2008/04/13, 01:08:43, , , -2.08, -1.40, 1013.7, 69.6483480, 18.9625600, , 90.00, 0.00, 192.60, 1014.59, 0.00, 0.0, 28.58, 69.41, 74.3, 224, 1.9, 46.75030, 33.39550, 20.8149, 33.3955, 46.7503, 83.60, 3.3082, 1461.64, 48.90, 54.4, 1.31, 1.9, 52
2008/04/13, 01:09:43, , , -2.11, -1.40, 1013.7, 69.6483480, 18.9625600, , 270.00, 0.01, 192.60, 1014.55, -0.10, 0.0, 28.58, 69.44, 74.5, 209, 4.8, 46.74990, 33.39530, 20.8147, 33.3953, 46.7499, 83.20, 3.3131, 1461.66, 37.50, 39.3, 1.15, 4.8, 52
2008/04/13, 01:10:43, , , -1.97, -1.40, 1013.7, 69.6483480, 18.9625600, , 90.00, 0.00, 192.70, 1014.56, -0.10, 0.0, 28.58, 69.67, 74.2, 222, 1.5, 46.74910, 33.39550, 20.8137, 33.3955, 46.7491, 83.20, 3.3186, 1461.68, 43.00, 52.2, 1.24, 1.5, 52
2008/04/13, 01:11:43, , , -2.14, -1.40, 1013.7, 69.6483480, 18.9625600, , 243.40, 0.01, 192.60, 1014.54, 0.00, 0.0, 28.58, 69.54, 74.5, 212, 2.6, 46.74860, 33.39610, 20.8125, 33.3961, 46.7486, 83.60, 3.3208, 1461.69, 61.10, 42.3, 0.72, 2.6, 52
2008/04/13, 01:12:43, , , -1.94, -1.40, 1013.7, 69.6483480, 18.9625600, , 90.00, 0.00, 192.70, 1014.46, 0.00, 0.0, 28.58, 69.77, 74.5, 220, 2.8, 46.74790, 33.39540, 20.8126, 33.3954, 46.7479, 83.60, 3.3228, 1461.70, 60.90, 50.3, 0.63, 2.8, 52
2008/04/13, 01:13:43, , , -2.06, -1.30, 1013.7, 69.6483480, 18.9625600, , 225.00, 0.02, 192.70, 1014.53, 0.10, 0.0, 28.58, 69.20, 74.3, 215, 3.1, 46.74720, 33.39590, 20.8113, 33.3959, 46.7472, 82.00, 3.3241, 1461.70, 45.90, 45.3, 1.29, 3.1, 52
2008/04/13, 01:14:43, , , -2.03, -1.40, 1013.7, 69.6483480, 18.9625600, , 90.00, 0.00, 192.70, 1014.48, 0.10, 0.0, 28.58, 68.82, 73.9, 213, 3.4, 46.74650, 33.39600, 20.8104, 33.3960, 46.7465, 82.70, 3.3251, 1461.71, 45.40, 43.4, 1.48, 3.4, 52
2008/04/13, 01:15:43, , , -2.06, -1.40, 1013.6, 69.6483480, 18.9625580, , 270.00, 0.01, 192.70, 1014.50, -0.10, 0.0, 28.58, 69.00, 73.6, 221, 2.7, 46.74590, 33.39600, 20.8098, 33.3960, 46.7459, 82.70, 3.3252, 1461.71, 48.40, 51.2, 1.21, 2.7, 52
2008/04/13, 01:16:44, , , -2.03, -1.40, 1013.6, 69.6483480, 18.9625600, , 270.00, 0.00, 192.60, 1014.47, 0.20, 0.0, 28.58, 69.31, 74.1, 212, 3.2, 46.74540, 33.39630, 20.8089, 33.3963, 46.7454, 83.00, 3.3253, 1461.71, 38.70, 42.3, 0.89, 3.2, 52
2008/04/13, 01:17:43, , , -2.08, -1.40, 1013.6, 69.6483480, 18.9625600, , 270.00, 0.00, 192.60, 1014.47, 0.20, 0.0, 28.58, 68.61, 74.1, 229, 1.4, 46.74470, 33.39670, 20.8076, 33.3967, 46.7447, 83.00, 3.3257, 1461.71, 40.30, 59.1, 1.08, 1.4, 52
2008/04/13, 01:18:43, , , -2.00, -1.40, 1013.6, 69.6483480, 18.9625600, , 296.60, 0.02, 192.70, 1014.52, 0.20, 0.0, 28.58, 68.89, 73.8, 218, 1.9, 46.74370, 33.39680, 20.8065, 33.3968, 46.7437, 83.00, 3.3260, 1461.71, 39.10, 48.3, 0.80, 1.9, 52
2008/04/13, 01:19:43, , , -2.00, -1.40, 1013.6, 69.6483480, 18.9625600, , 108.40, 0.01, 192.70, 1014.46, 0.20, 0.0, 28.58, 68.66, 73.9, 205, 3.5, 46.74300, 33.39720, 20.8053, 33.3972, 46.7430, 83.60, 3.3251, 1461.71, 31.90, 35.3, 0.76, 3.5, 52
2008/04/13, 01:20:43, , , -2.00, -1.40, 1013.6, 69.6483480, 18.9625600, , 135.00, 0.01, 192.70, 1014.44, 0.30, 0.0, 28.58, 68.56, 73.5, 213, 2.6, 46.74240, 33.39710, 20.8047, 33.3971, 46.7424, 83.60, 3.3240, 1461.71, 31.20, 43.4, 0.68, 2.6, 52
2008/04/13, 01:21:43, , , -1.97, -1.40, 1013.6, 69.6483480, 18.9625600, , 270.00, 0.00, 192.70, 1014.45, 0.20, 0.0, 28.58, 68.56, 73.7, 216, 2.9, 46.74160, 33.39740, 20.8037, 33.3974, 46.7416, 83.20, 3.3214, 1461.70, 40.00, 46.3, 0.74, 2.9, 52
2008/04/13, 01:22:43, , , -2.00, -1.40, 1013.6, 69.6483480, 18.9625600, , 90.00, 0.01, 192.70, 1014.37, 0.30, 0.0, 28.58, 68.84, 73.4, 210, 2.6, 46.74070, 33.39710, 20.8030, 33.3971, 46.7407, 83.60, 3.3174, 1461.68, 37.20, 40.3, 0.54, 2.6, 52
2008/04/13, 01:23:43, , , -2.06, -1.40, 1013.5, 69.6483480, 18.9625620, , 90.00, 0.01, 192.70, 1014.42, 0.20, 0.0, 28.58, 68.79, 73.6, 213, 3.4, 46.74020, 33.39740, 20.8023, 33.3974, 46.7402, 83.20, 3.3136, 1461.66, 49.50, 43.3, 0.89, 3.4, 52
2008/04/13, 01:24:43, , , -1.94, -1.40, 1013.5, 69.6483480, 18.9625600, , 135.00, 0.01, 192.70, 1014.41, 0.20, 0.0, 28.58, 68.79, 73.7, 217, 3.0, 46.73910, 33.39710, 20.8015, 33.3971, 46.7391, 83.20, 3.3087, 1461.64, 46.20, 47.1, 1.24, 3.0, 52
2008/04/13, 01:25:43, , , -2.11, -1.40, 1013.6, 69.6483480, 18.9625600, , 315.00, 0.01, 192.70, 1014.42, 0.40, 0.0, 28.58, 68.74, 73.9, 211, 3.5, 46.73910, 33.39740, 20.8011, 33.3974, 46.7391, 83.60, 3.3053, 1461.63, 32.20, 41.3, 1.35, 3.5, 52
2008/04/13, 01:26:44, , , -2.08, -1.40, 1013.6, 69.6483480, 18.9625600, , 90.00, 0.00, 192.70, 1014.44, 0.50, 0.0, 28.58, 68.56, 73.5, 206, 3.6, 46.73840, 33.39710, 20.8007, 33.3971, 46.7384, 83.20, 3.3010, 1461.61, 28.80, 36.2, 1.22, 3.6, 52
2008/04/13, 01:27:43, , , -1.97, -1.40, 1013.6, 69.6483480, 18.9625600, , 180.00, 0.01, 192.70, 1014.41, 0.40, 0.0, 28.58, 68.41, 73.3, 218, 2.4, 46.73790, 33.39660, 20.8008, 33.3966, 46.7379, 83.20, 3.2981, 1461.60, 32.60, 48.3, 0.97, 2.4, 52
2008/04/13, 01:28:43, , , -2.06, -1.40, 1013.6, 69.6483480, 18.9625620, , 251.60, 0.02, 192.70, 1014.38, 0.60, 0.0, 28.58, 68.02, 73.4, 210, 3.1, 46.73770, 33.39680, 20.8004, 33.3968, 46.7377, 83.20, 3.2954, 1461.58, 38.10, 40.2, 0.85, 3.1, 52
2008/04/13, 01:29:43, , , -2.03, -1.40, 1013.6, 69.6483470, 18.9625600, , 90.00, 0.00, 192.70, 1014.44, 0.40, 0.0, 28.58, 68.10, 73.5, 217, 2.8, 46.73710, 33.39600, 20.8009, 33.3960, 46.7371, 83.00, 3.2924, 1461.57, 33.20, 47.3, 0.80, 2.8, 52
2008/04/13, 01:30:44, , , -1.97, -1.40, 1013.6, 69.6483470, 18.9625620, , 270.00, 0.00, 192.70, 1014.41, 0.50, 0.0, 28.58, 68.07, 73.2, 225, 2.1, 46.73700, 33.39590, 20.8008, 33.3959, 46.7370, 83.00, 3.2906, 1461.56, 44.10, 55.2, 0.80, 2.1, 52
2008/04/13, 01:31:43, , , -2.08, -1.40, 1013.5, 69.6483480, 18.9625620, , 270.00, 0.00, 192.70, 1014.38, 0.50, 0.0, 28.58, 68.20, 73.2, 218, 2.6, 46.73680, 33.39560, 20.8009, 33.3956, 46.7368, 83.20, 3.2889, 1461.56, 32.10, 48.3, 0.72, 2.6, 52
2008/04/13, 01:32:43, , , -2.00, -1.40, 1013.5, 69.6483470, 18.9625600, , 206.60, 0.01, 192.70, 1014.41, 0.60, 0.0, 28.58, 68.30, 73.3, 210, 3.1, 46.73680, 33.39590, 20.8006, 33.3959, 46.7368, 83.20, 3.2873, 1461.55, 21.50, 40.5, 0.77, 3.1, 52
2008/04/13, 01:33:43, , , -2.08, -1.40, 1013.5, 69.6483480, 18.9625600, , 270.00, 0.01, 192.70, 1014.37, 0.50, 0.0, 28.58, 68.25, 73.3, 205, 3.9, 46.73650, 33.39560, 20.8008, 33.3956, 46.7365, 83.20, 3.2854, 1461.54, 26.00, 35.2, 0.72, 3.9, 52
2008/04/13, 01:34:43, , , -2.11, -1.40, 1013.5, 69.6483480, 18.9625620, , 270.00, 0.00, 192.70, 1014.36, 0.40, 0.0, 28.58, 67.89, 73.2, 197, 4.3, 46.73610, 33.39510, 20.8009, 33.3951, 46.7361, 82.70, 3.2837, 1461.53, 33.60, 27.4, 0.97, 4.3, 52
2008/04/13, 01:35:43, , , -2.14, -1.40, 1013.5, 69.6483480, 18.9625600, , 90.00, 0.01, 192.70, 1014.35, 0.50, 0.0, 28.58, 67.89, 72.8, 216, 3.0, 46.73580, 33.39520, 20.8006, 33.3952, 46.7358, 82.70, 3.2815, 1461.52, 13.80, 46.4, 1.28, 3.0, 52